Date String (YYYY-MM-DD hh:mm:ss) UTC,Instrument flags,absolute air pressure of the measurement (hPa),sample flow rate (lpm),inlet stack bypass flow (lpm),air temperature of the measurement (°C),ambient temperature measured by the external sensor (°C),aerosol sample conditioner tube jacket temperature (°C),OPC LED temperature (°C),internal box temperature (°C),relative humidity of the measurement (%),span deviation,mass concentration of particles derived from Lorenz-Mie calculation of OPC scattering (μg/m³),mass concentration of particles derived from Lorenz-Mie calculation of OPC scattering (μg/m³),mass concentration of particles derived from Lorenz-Mie calculation of OPC scattering (μg/m³)
DateTimeUTC,F1_M11,P_M11,Q1_M11,Q2_M11,T1_M11,T2_M11,T3_M11,T4_M11,T5_M11,U1_M11,ZSPAN_M11,X0_M11,X2_M11,X1_M11
2024-02-14 14:00:00,SystemResetWarning,0823.0,5.00,000.00,018.5,017.9,000.0,026.9,020.1,15.1,0000.0,0007.49,0004.01,0003.68
2024-02-14 14:01:00,SystemResetWarning,0823.0,5.00,000.00,018.4,017.9,000.0,026.9,020.1,15.1,0000.0,0008.01,0004.06,0003.72
2024-02-14 14:02:00,SystemResetWarning,0823.0,4.99,000.00,018.4,017.9,000.0,026.9,020.1,15.2,0000.0,0008.13,0004.11,0003.76
2024-02-14 14:03:00,SystemResetWarning,0822.9,5.00,000.00,018.4,017.9,000.0,026.9,020.0,15.2,0000.0,0008.20,0004.16,0003.79
2024-02-14 14:04:00,SystemResetWarning,0822.9,5.00,000.00,018.4,017.9,000.0,026.9,020.0,15.1,0000.0,0008.29,0004.18,0003.80
2024-02-14 14:05:00,SystemResetWarning,0823.0,5.00,000.00,018.4,017.9,000.0,026.9,020.1,15.1,0000.0,0007.88,0004.18,0003.79
2024-02-14 14:06:00,SystemResetWarning,0822.9,5.00,000.00,018.4,017.8,000.0,026.9,020.1,15.0,0000.0,0007.91,0004.24,0003.81
2024-02-14 14:07:00,SystemResetWarning,0822.9,4.99,000.00,018.4,017.8,000.0,026.9,020.1,15.1,0000.0,0008.41,0004.25,0003.82
2024-02-14 14:08:00,SystemResetWarning,0823.0,5.00,000.00,018.3,017.8,000.0,026.9,020.1,15.1,0000.0,0008.51,0004.24,0003.80
2024-02-14 14:09:00,SystemResetWarning,0822.9,4.99,000.00,018.3,017.8,000.0,026.9,020.1,15.1,0000.0,0008.49,0004.22,0003.81
2024-02-14 14:10:00,SystemResetWarning,0823.1,5.00,000.00,018.3,017.8,000.0,026.9,020.1,15.1,0000.0,0008.49,0004.19,0003.80
2024-02-14 14:11:00,SystemResetWarning,0823.2,5.00,000.00,018.3,017.8,000.0,026.9,020.1,15.0,0000.0,0008.53,0004.19,0003.81
2024-02-14 14:12:00,SystemResetWarning,0823.0,5.00,000.00,018.3,017.8,000.0,026.9,020.1,15.0,0000.0,0008.75,0004.21,0003.82
2024-02-14 14:13:00,SystemResetWarning,0823.0,5.00,000.00,018.3,017.8,000.0,026.8,020.0,15.0,0000.0,0008.94,0004.24,0003.82
2024-02-14 14:14:00,SystemResetWarning,0823.1,5.00,000.00,018.3,017.8,000.0,026.9,020.0,15.1,0000.0,0009.20,0004.27,0003.82
2024-02-14 14:15:00,SystemResetWarning,0823.0,5.00,000.00,018.3,017.8,000.0,026.8,020.0,15.2,0000.0,0009.25,0004.29,0003.84
2024-02-14 14:16:00,SystemResetWarning,0823.0,5.00,000.00,018.3,017.8,000.0,026.8,020.0,15.2,0000.0,0009.28,0004.33,0003.84
2024-02-14 14:17:00,SystemResetWarning,0823.0,5.00,000.00,018.3,017.8,000.0,026.8,020.0,15.3,0000.0,0009.24,0004.29,0003.85
2024-02-14 14:18:00,SystemResetWarning,0823.1,5.01,000.00,018.3,017.7,000.0,026.8,020.0,15.2,0000.0,0009.50,0004.28,0003.84
2024-02-14 14:19:00,SystemResetWarning,0823.1,5.00,000.00,018.3,017.7,000.0,026.8,020.0,15.2,0000.0,0009.31,0004.29,0003.85
2024-02-14 14:20:00,SystemResetWarning,0823.1,5.00,000.00,018.3,017.7,000.0,026.8,020.0,15.2,0000.0,0010.05,0004.30,0003.84
2024-02-14 14:21:00,SystemResetWarning,0823.2,5.00,000.00,018.3,017.7,000.0,026.8,020.0,15.2,0000.0,0010.38,0004.31,0003.82
2024-02-14 14:22:00,SystemResetWarning,0823.2,5.00,000.00,018.3,017.7,000.0,026.8,020.0,15.2,0000.0,0010.40,0004.32,0003.80
2024-02-14 14:23:00,SystemResetWarning,0823.3,5.00,000.00,018.3,017.7,000.0,026.8,020.0,15.2,0000.0,0010.03,0004.32,0003.79
2024-02-14 14:24:00,SystemResetWarning,0823.2,5.00,000.00,018.3,017.7,000.0,026.8,020.0,15.3,0000.0,0009.97,0004.29,0003.78
2024-02-14 14:25:00,SystemResetWarning,0823.3,5.00,000.00,018.2,017.7,000.0,026.8,020.0,15.2,0000.0,0010.10,0004.26,0003.77
2024-02-14 14:26:00,SystemResetWarning,0823.3,4.99,000.00,018.2,017.6,000.0,026.9,020.0,15.2,0000.0,0010.06,0004.26,0003.76
2024-02-14 14:27:00,SystemResetWarning,0823.3,5.00,000.00,018.3,017.6,000.0,026.9,020.0,15.2,0000.0,0010.47,0004.23,0003.75
2024-02-14 14:28:00,SystemResetWarning,0823.3,5.01,000.00,018.3,017.6,000.0,026.9,020.0,15.2,0000.0,0011.14,0004.26,0003.73
2024-02-14 14:29:00,SystemResetWarning,0823.2,5.02,000.00,018.3,017.6,000.0,026.9,020.0,15.2,0000.0,0011.20,0004.26,0003.71
2024-02-14 14:30:00,SystemResetWarning,0823.2,4.99,000.00,018.2,017.6,000.0,026.9,020.0,15.1,0000.0,0011.26,0004.24,0003.70
2024-02-14 14:31:00,SystemResetWarning,0823.2,4.99,000.00,018.2,017.6,000.0,026.9,020.0,15.2,0000.0,0010.50,0004.20,0003.69
2024-02-14 14:32:00,SystemResetWarning,0823.3,5.01,000.00,018.2,017.6,000.0,026.8,020.0,15.1,0000.0,0010.59,0004.19,0003.69
2024-02-14 14:33:00,SystemResetWarning,0823.3,5.00,000.00,018.2,017.6,000.0,026.8,020.0,15.1,0000.0,0010.65,0004.18,0003.68
2024-02-14 14:34:00,SystemResetWarning,0823.3,4.99,000.00,018.2,017.6,000.0,026.8,020.0,15.1,0000.0,0010.62,0004.15,0003.67
2024-02-14 14:35:00,SystemResetWarning,0823.3,5.00,000.00,018.2,017.6,000.0,026.8,020.0,15.1,0000.0,0010.25,0004.14,0003.66
2024-02-14 14:36:00,SystemResetWarning,0823.3,5.01,000.00,018.2,017.6,000.0,026.8,020.0,15.2,0000.0,0010.14,0004.15,0003.66
2024-02-14 14:37:00,SystemResetWarning,0823.4,5.01,000.00,018.2,017.6,000.0,026.8,020.0,15.2,0000.0,0010.90,0004.11,0003.65
2024-02-14 14:38:00,SystemResetWarning,0823.4,5.01,000.00,018.2,017.6,000.0,026.9,020.0,15.3,0000.0,0010.51,0004.11,0003.65
2024-02-14 14:39:00,SystemResetWarning,0823.3,5.00,000.00,018.2,017.5,000.0,026.9,020.0,15.3,0000.0,0009.80,0004.12,0003.66
2024-02-14 14:40:00,SystemResetWarning,0823.3,5.00,000.00,018.2,017.5,000.0,026.9,020.0,15.3,0000.0,0009.44,0004.13,0003.67
2024-02-14 14:41:00,SystemResetWarning,0823.3,5.00,000.00,018.2,017.6,000.0,026.8,020.0,15.3,0000.0,0009.54,0004.13,0003.67
2024-02-14 14:42:00,SystemResetWarning,0823.4,4.99,000.00,018.2,017.6,000.0,026.9,020.0,15.3,0000.0,0009.61,0004.16,0003.67
2024-02-14 14:43:00,SystemResetWarning,0823.4,5.01,000.00,018.2,017.6,000.0,026.9,020.0,15.3,0000.0,0009.34,0004.15,0003.68
2024-02-14 14:44:00,SystemResetWarning,0823.4,5.01,000.00,018.3,017.6,000.0,026.9,020.0,15.3,0000.0,0009.40,0004.18,0003.69
2024-02-14 14:45:00,SystemResetWarning,0823.5,5.00,000.00,018.2,017.6,000.0,026.8,020.0,15.3,0000.0,0009.29,0004.21,0003.70
2024-02-14 14:46:00,SystemResetWarning,0823.4,5.00,000.00,018.2,017.6,000.0,026.8,020.0,15.3,0000.0,0009.31,0004.23,0003.72
2024-02-14 14:47:00,SystemResetWarning,0823.4,5.01,000.00,018.2,017.6,000.0,026.8,020.0,15.2,0000.0,0009.14,0004.25,0003.72
2024-02-14 14:48:00,SystemResetWarning,0823.4,5.00,000.00,018.2,017.6,000.0,026.8,020.0,15.2,0000.0,0008.43,0004.28,0003.73
2024-02-14 14:49:00,SystemResetWarning,0823.5,4.99,000.00,018.2,017.6,000.0,026.8,020.0,15.3,0000.0,0008.40,0004.35,0003.74
2024-02-14 14:50:00,SystemResetWarning,0823.5,5.00,000.00,018.3,017.6,000.0,026.9,020.0,15.2,0000.0,0008.33,0004.31,0003.74
2024-02-14 14:51:00,SystemResetWarning,0823.4,4.99,000.00,018.3,017.6,000.0,026.8,020.0,15.2,0000.0,0008.10,0004.29,0003.73
2024-02-14 14:52:00,SystemResetWarning,0823.4,5.00,000.00,018.2,017.6,000.0,026.8,020.0,15.2,0000.0,0008.10,0004.31,0003.73
2024-02-14 14:53:00,SystemResetWarning,0823.5,5.01,000.00,018.2,017.6,000.0,026.8,020.0,15.2,0000.0,0008.15,0004.35,0003.75
2024-02-14 14:54:00,SystemResetWarning,0823.5,5.00,000.00,018.2,017.6,000.0,026.8,020.0,15.1,0000.0,0008.20,0004.41,0003.77
2024-02-14 14:55:00,SystemResetWarning,0823.6,5.00,000.00,018.2,017.6,000.0,026.8,020.0,15.5,0000.0,0008.64,0004.43,0003.79
2024-02-14 14:56:00,SystemResetWarning,0823.5,5.00,000.00,018.2,017.6,000.0,026.8,020.0,15.9,0000.0,0008.62,0004.44,0003.82
2024-02-14 14:57:00,SystemResetWarning,0823.5,5.00,000.00,018.2,017.6,000.0,026.8,020.0,15.9,0000.0,0008.65,0004.46,0003.84
2024-02-14 14:58:00,SystemResetWarning,0823.4,5.00,000.00,018.2,017.6,000.0,026.9,020.0,15.8,0000.0,0008.89,0004.49,0003.87
2024-02-14 14:59:00,SystemResetWarning,0823.4,4.99,000.00,018.3,017.6,000.0,026.9,020.0,15.9,0000.0,0009.44,0004.53,0003.91
